User: anonymous   Login
Location: Endfield
(51.6667°N, 0.0667°W)
Time: 12:03:40
(UTC+00:00)
Language:

Cosmos 1626 - Orbit

View from above orbital plane
View from above orbital plane
View from above satellite
View from above satellite

Ground track
Ground track

The orbit data is extracted from the following two-line orbital elements,

1 15494U 85009A   24203.91696236  .00059754  00000-0  82358-3 0  9997
2 15494  82.4653 153.8291 0003250 100.5998 259.5623 15.56982859164229
Epoch (UTC): 21 July 2024 22:00:25
Eccentricity: 0.0003250
inclination: 82.4653°
perigee height: 394 km
apogee height: 398 km
right ascension of ascending node: 153.8291°
argument of perigee: 100.5998°
revolutions per day: 15.56982859
mean anomaly at epoch: 259.5623°
orbit number at epoch: 16422

The dashed part of the orbit path shows where the satellite is in the earth's shadow,  

DLR